TimeCDT,TemperatureF,Dew PointF,Humidity,Sea Level PressureIn,VisibilityMPH,Wind Direction,Wind SpeedMPH,Gust SpeedMPH,PrecipitationIn,Events,Conditions,WindDirDegrees,DateUTC
12:53 AM,48.0,36.0,63,29.90,10.0,East,6.9,-,N/A,,Clear,100,2012-11-03 05:53:00
1:53 AM,46.9,37.0,68,29.92,10.0,NNE,4.6,-,N/A,,Clear,30,2012-11-03 06:53:00
2:53 AM,45.0,37.0,74,29.93,10.0,North,8.1,-,N/A,,Clear,360,2012-11-03 07:53:00
3:53 AM,43.0,37.0,80,29.94,10.0,North,6.9,-,N/A,,Clear,360,2012-11-03 08:53:00
4:53 AM,43.0,37.0,80,29.96,10.0,North,8.1,-,N/A,,Clear,350,2012-11-03 09:53:00
5:53 AM,43.0,36.0,76,29.98,10.0,North,6.9,-,N/A,,Clear,350,2012-11-03 10:53:00
6:53 AM,42.1,36.0,79,30.01,10.0,NNW,6.9,-,N/A,,Clear,330,2012-11-03 11:53:00
7:53 AM,41.0,36.0,82,30.04,10.0,NNW,8.1,-,N/A,,Clear,330,2012-11-03 12:53:00
8:53 AM,44.1,37.0,76,30.07,10.0,NNW,10.4,-,N/A,,Clear,340,2012-11-03 13:53:00
9:53 AM,46.9,37.9,71,30.09,10.0,NNW,10.4,-,N/A,,Clear,340,2012-11-03 14:53:00
10:53 AM,48.9,37.9,66,30.12,10.0,NNW,11.5,-,N/A,,Clear,330,2012-11-03 15:53:00
11:53 AM,50.0,37.9,63,30.12,10.0,NNW,11.5,-,N/A,,Clear,330,2012-11-03 16:53:00
12:53 PM,53.1,37.0,55,30.13,10.0,NNW,15.0,-,N/A,,Clear,340,2012-11-03 17:53:00
1:53 PM,54.0,37.9,55,30.14,10.0,NNW,15.0,19.6,N/A,,Clear,340,2012-11-03 18:53:00
2:53 PM,55.9,37.9,51,30.14,10.0,NNW,16.1,20.7,N/A,,Clear,330,2012-11-03 19:53:00
3:53 PM,55.9,37.9,51,30.14,10.0,NNW,11.5,-,N/A,,Clear,340,2012-11-03 20:53:00
4:53 PM,55.0,37.9,53,30.15,10.0,North,9.2,-,N/A,,Clear,10,2012-11-03 21:53:00
5:53 PM,51.1,37.9,61,30.16,10.0,North,6.9,-,N/A,,Clear,360,2012-11-03 22:53:00
6:53 PM,48.9,37.0,64,30.18,10.0,NNE,3.5,-,N/A,,Clear,20,2012-11-03 23:53:00
7:53 PM,46.9,37.0,68,30.19,10.0,NE,3.5,-,N/A,,Clear,50,2012-11-04 00:53:00
8:53 PM,46.0,37.0,71,30.19,10.0,Calm,Calm,-,N/A,,Clear,0,2012-11-04 01:53:00
9:53 PM,44.1,37.9,79,30.21,10.0,NE,3.5,-,N/A,,Clear,50,2012-11-04 02:53:00
10:53 PM,44.1,37.0,76,30.21,10.0,Calm,Calm,-,N/A,,Clear,0,2012-11-04 03:53:00
11:53 PM,43.0,37.0,80,30.21,10.0,ESE,3.5,-,N/A,,Clear,110,2012-11-04 04:53:00